GEFSNGP_prec_meanprecacc_228.txt.gz
Total_Precipitation_Accumulation
0.03 0.07 0.11 0.11 0.08 0.08 0.07 0.06 0.06 0.08 0.13 0.24 0.35 0.40 0.40 0.41 0.46 0.48 0.43 0.43 0.55 0.68 0.77 0.75 0.69 0.64 0.67 0.81 0.94 1.14 1.35 1.40 1.42 1.52 1.64 1.79 1.96 2.01 2.02 2.03 1.97 2.07 2.03 1.94
0.05 0.07 0.09 0.07 0.07 0.07 0.06 0.06 0.06 0.09 0.15 0.25 0.36 0.40 0.36 0.36 0.37 0.42 0.47 0.49 0.56 0.75 0.94 0.99 0.98 0.95 0.98 1.09 1.28 1.55 1.83 1.92 2.00 2.07 2.14 2.21 2.26 2.26 2.32 2.32 2.26 2.16 2.07 2.07
0.11 0.10 0.11 0.09 0.09 0.08 0.08 0.09 0.10 0.14 0.21 0.32 0.45 0.42 0.47 0.46 0.44 0.54 0.60 0.65 0.69 0.85 0.99 1.11 1.13 1.15 1.25 1.33 1.52 1.75 1.92 2.01 2.12 2.20 2.28 2.33 2.35 2.37 2.32 2.31 2.26 2.16 2.16 2.20
0.18 0.21 0.22 0.13 0.15 0.17 0.19 0.22 0.25 0.25 0.31 0.38 0.46 0.48 0.53 0.55 0.53 0.55 0.66 0.79 0.82 0.92 1.02 1.08 1.18 1.30 1.39 1.43 1.49 1.73 1.90 2.00 2.03 2.07 2.12 2.25 2.39 2.36 2.25 2.22 2.20 2.18 2.16 2.06
0.31 0.28 0.29 0.28 0.26 0.27 0.35 0.42 0.38 0.51 0.58 0.53 0.54 0.58 0.60 0.61 0.76 0.74 0.71 0.77 0.83 0.95 1.01 1.09 1.15 1.20 1.17 1.22 1.34 1.48 1.56 1.67 1.72 1.84 2.01 2.14 2.23 2.27 2.28 2.22 2.07 1.97 1.89 1.84
0.44 0.45 0.43 0.42 0.45 0.36 0.40 0.70 0.69 0.75 0.83 0.78 0.77 0.90 0.85 0.63 0.63 0.69 0.72 0.74 0.80 0.93 0.99 1.06 1.10 1.12 1.15 1.23 1.40 1.58 1.71 1.78 1.86 1.95 2.08 2.10 2.20 2.29 2.29 2.23 2.18 2.14 2.00 1.93
0.48 0.52 0.54 0.48 0.44 0.45 0.74 1.01 1.00 1.07 1.09 0.99 1.02 1.02 0.92 0.73 0.66 0.67 0.73 0.76 0.79 0.90 1.03 1.08 1.13 1.27 1.36 1.45 1.57 1.70 1.76 1.79 1.81 1.88 1.98 2.07 2.21 2.19 2.23 2.21 2.14 2.01 1.87 1.78
0.68 0.85 0.98 0.74 0.65 0.85 1.02 0.80 0.85 1.03 1.23 1.24 1.17 1.07 0.95 0.81 0.69 0.64 0.61 0.67 0.81 0.91 1.02 1.13 1.25 1.41 1.52 1.54 1.59 1.68 1.82 1.88 1.86 1.91 1.95 1.98 2.03 2.00 2.00 1.99 1.91 1.84 1.80 1.76
1.00 1.14 1.05 0.88 0.90 0.86 0.94 1.07 1.13 1.22 1.40 1.41 1.26 1.11 1.04 0.92 0.77 0.69 0.68 0.72 0.80 0.90 1.03 1.13 1.26 1.41 1.54 1.61 1.71 1.78 1.86 1.95 2.01 2.03 2.02 2.07 2.15 2.17 2.06 1.96 1.88 1.80 1.72 1.57
1.20 1.34 1.17 1.01 0.98 0.96 1.03 1.21 1.26 1.23 1.23 1.22 1.16 1.08 1.16 1.17 0.99 0.93 0.92 0.91 0.91 0.96 1.00 1.10 1.23 1.38 1.51 1.57 1.65 1.80 1.87 1.89 1.98 2.07 2.13 2.15 2.16 2.11 2.00 1.88 1.78 1.70 1.60 1.53
1.42 1.62 1.55 1.37 1.24 1.16 1.17 1.14 1.22 1.15 1.17 1.15 1.11 1.06 1.11 1.22 1.24 1.15 1.02 0.97 0.98 1.02 1.05 1.10 1.20 1.30 1.50 1.60 1.64 1.72 1.85 1.90 1.89 1.89 1.95 2.00 2.01 1.95 1.83 1.73 1.65 1.57 1.47 1.44
1.75 1.75 1.85 1.73 1.43 1.28 1.34 1.29 1.24 1.19 1.26 1.29 1.22 1.14 1.13 1.24 1.26 1.21 1.10 1.02 1.01 1.04 1.07 1.11 1.20 1.32 1.40 1.58 1.77 1.85 1.84 1.77 1.69 1.60 1.58 1.60 1.58 1.60 1.64 1.52 1.51 1.40 1.31 1.25
1.49 1.73 1.79 1.63 1.45 1.49 1.49 1.47 1.44 1.41 1.37 1.37 1.43 1.37 1.24 1.20 1.20 1.15 1.12 1.10 1.06 1.07 1.10 1.17 1.26 1.31 1.31 1.36 1.53 1.71 1.71 1.62 1.55 1.51 1.49 1.40 1.34 1.34 1.39 1.38 1.31 1.23 1.24 1.17
1.34 1.55 1.77 1.65 1.59 1.57 1.51 1.56 1.55 1.57 1.57 1.49 1.50 1.48 1.36 1.27 1.21 1.18 1.16 1.06 0.97 0.96 1.02 1.08 1.15 1.24 1.29 1.29 1.36 1.45 1.52 1.58 1.46 1.37 1.41 1.38 1.33 1.29 1.30 1.31 1.30 1.20 1.16 1.15
1.33 1.36 1.46 1.46 1.46 1.52 1.46 1.45 1.53 1.64 1.71 1.69 1.61 1.52 1.40 1.36 1.30 1.20 1.08 0.99 0.97 1.00 0.96 0.98 1.04 1.08 1.12 1.21 1.30 1.30 1.35 1.39 1.36 1.34 1.33 1.32 1.30 1.26 1.23 1.22 1.25 1.19 1.09 1.12
1.34 1.22 1.24 1.43 1.50 1.50 1.55 1.55 1.53 1.50 1.45 1.46 1.47 1.46 1.41 1.34 1.25 1.15 1.06 1.03 1.07 1.11 1.06 1.00 0.99 1.00 0.99 1.04 1.18 1.21 1.20 1.34 1.27 1.27 1.29 1.28 1.30 1.31 1.26 1.27 1.28 1.24 1.15 1.13
1.31 1.25 1.29 1.39 1.42 1.48 1.54 1.45 1.38 1.32 1.31 1.28 1.27 1.25 1.23 1.27 1.24 1.18 1.15 1.11 1.08 1.14 1.14 1.13 1.09 1.02 1.02 1.06 1.14 1.16 1.09 1.11 1.16 1.10 1.11 1.15 1.17 1.23 1.24 1.24 1.24 1.20 1.12 1.11
1.21 1.13 1.23 1.34 1.34 1.40 1.30 1.22 1.16 1.07 1.08 1.15 1.21 1.22 1.17 1.15 1.11 1.13 1.15 1.09 1.03 1.06 1.10 1.12 1.06 1.00 0.98 1.02 1.06 1.12 1.07 0.99 0.99 1.03 1.15 1.17 1.20 1.23 1.26 1.22 1.21 1.22 1.22 1.20
1.11 1.08 1.10 1.11 1.12 1.18 1.07 1.06 1.05 1.03 0.97 1.02 1.13 1.17 1.16 1.13 1.07 0.99 1.01 1.07 1.11 1.11 1.04 0.94 0.94 0.87 0.90 0.98 1.05 1.08 1.12 1.09 1.07 1.09 1.20 1.28 1.29 1.34 1.34 1.32 1.30 1.29 1.26 1.23
1.15 1.18 1.12 1.03 1.01 1.09 1.07 1.03 0.96 0.95 0.92 0.94 1.06 1.13 1.13 1.07 1.04 1.04 1.09 1.13 1.14 1.02 0.83 0.79 0.74 0.76 0.76 0.83 0.92 0.94 1.04 1.09 1.09 1.13 1.18 1.21 1.24 1.27 1.26 1.24 1.23 1.24 1.28 1.34
1.31 1.21 1.12 1.05 0.95 0.94 1.04 1.05 1.02 1.00 0.94 0.94 1.03 1.06 1.07 1.02 0.94 0.95 1.06 1.11 1.03 0.84 0.72 0.79 0.77 0.73 0.67 0.72 0.79 0.82 0.92 1.03 1.13 1.15 1.13 1.16 1.14 1.09 1.09 1.15 1.22 1.31 1.34 1.37
1.32 1.14 1.00 0.92 0.95 1.02 1.00 1.00 1.00 1.03 1.08 1.16 1.13 1.07 1.05 1.04 0.96 0.96 0.96 1.00 0.91 0.87 0.71 0.67 0.73 0.79 0.75 0.66 0.66 0.83 0.93 1.00 1.06 1.10 1.08 1.11 1.17 1.14 1.09 1.14 1.26 1.30 1.34 1.34
1.19 1.07 1.02 0.98 0.96 1.00 1.00 1.00 1.01 1.01 1.06 1.18 1.24 1.21 1.17 1.11 1.06 1.05 1.08 0.96 0.84 0.83 0.75 0.73 0.78 0.77 0.74 0.67 0.69 0.76 0.79 0.83 0.86 0.90 0.93 1.01 1.13 1.18 1.16 1.11 1.08 1.10 1.19 1.26
1.18 1.10 1.05 0.98 0.93 1.00 1.11 1.12 1.07 1.01 0.98 1.04 1.10 1.13 1.17 1.15 1.13 1.06 1.12 1.17 1.04 0.88 0.80 0.85 0.79 0.69 0.70 0.70 0.74 0.75 0.74 0.74 0.77 0.85 0.93 1.00 1.12 1.21 1.18 1.11 1.00 0.95 1.03 1.18
1.23 1.16 1.11 1.09 1.09 1.08 1.08 1.10 1.06 1.01 0.96 0.99 0.95 0.98 1.05 1.11 1.19 1.21 1.18 1.12 1.10 1.00 0.86 0.80 0.75 0.68 0.63 0.67 0.72 0.74 0.74 0.73 0.74 0.78 0.84 0.92 0.96 1.02 1.08 1.08 1.01 0.93 0.91 1.00
1.29 1.20 1.14 1.16 1.19 1.11 1.05 1.09 1.18 1.19 1.14 1.12 1.04 0.95 0.95 1.02 1.11 1.18 1.17 1.08 0.95 0.85 0.78 0.76 0.69 0.65 0.59 0.64 0.69 0.75 0.78 0.80 0.78 0.73 0.71 0.74 0.73 0.71 0.73 0.78 0.83 0.86 0.87 0.83
1.29 1.19 1.12 1.07 1.02 0.97 1.02 1.08 1.13 1.20 1.20 1.14 1.05 0.94 0.94 1.02 1.07 1.06 0.99 0.95 0.85 0.78 0.68 0.58 0.54 0.55 0.54 0.54 0.56 0.58 0.62 0.64 0.67 0.75 0.86 0.91 0.74 0.60 0.58 0.62 0.66 0.70 0.74 0.73

GEFSNGP_prec_meanprecacc_234.txt.gz
Total_Precipitation_Accumulation
0.03 0.07 0.11 0.11 0.08 0.08 0.07 0.06 0.06 0.09 0.13 0.24 0.35 0.40 0.40 0.41 0.46 0.48 0.43 0.44 0.55 0.69 0.78 0.75 0.69 0.64 0.68 0.82 0.96 1.16 1.38 1.43 1.45 1.56 1.67 1.81 1.98 2.02 2.03 2.04 1.99 2.08 2.04 1.95
0.05 0.07 0.09 0.07 0.07 0.07 0.06 0.06 0.06 0.09 0.15 0.25 0.36 0.40 0.36 0.36 0.37 0.43 0.47 0.49 0.56 0.75 0.94 0.99 0.99 0.95 0.99 1.10 1.31 1.58 1.86 1.95 2.03 2.12 2.19 2.25 2.29 2.28 2.34 2.33 2.27 2.17 2.08 2.08
0.11 0.10 0.11 0.09 0.09 0.08 0.08 0.09 0.10 0.14 0.21 0.32 0.45 0.42 0.47 0.46 0.44 0.54 0.60 0.65 0.70 0.85 0.99 1.12 1.13 1.15 1.26 1.35 1.55 1.78 1.96 2.05 2.17 2.25 2.36 2.43 2.44 2.42 2.35 2.33 2.28 2.18 2.17 2.21
0.18 0.21 0.22 0.13 0.15 0.17 0.19 0.22 0.25 0.25 0.31 0.39 0.47 0.48 0.53 0.55 0.53 0.56 0.66 0.79 0.82 0.92 1.03 1.09 1.19 1.30 1.41 1.46 1.52 1.76 1.94 2.04 2.08 2.14 2.22 2.34 2.46 2.40 2.28 2.24 2.21 2.18 2.17 2.07
0.31 0.28 0.29 0.28 0.26 0.27 0.35 0.42 0.38 0.52 0.59 0.54 0.55 0.59 0.61 0.62 0.77 0.75 0.71 0.77 0.83 0.95 1.02 1.11 1.17 1.22 1.19 1.26 1.38 1.52 1.59 1.69 1.75 1.88 2.05 2.18 2.27 2.29 2.30 2.24 2.08 1.98 1.89 1.85
0.45 0.46 0.43 0.42 0.45 0.36 0.40 0.70 0.69 0.76 0.84 0.79 0.79 0.92 0.87 0.67 0.66 0.70 0.73 0.75 0.82 0.95 1.02 1.10 1.14 1.15 1.19 1.27 1.44 1.61 1.73 1.80 1.87 1.97 2.10 2.14 2.22 2.31 2.31 2.25 2.20 2.15 2.02 1.95
0.49 0.54 0.54 0.48 0.45 0.45 0.75 1.01 1.00 1.07 1.10 1.01 1.03 1.03 0.93 0.76 0.69 0.69 0.74 0.78 0.82 0.94 1.08 1.14 1.19 1.33 1.42 1.51 1.63 1.74 1.78 1.81 1.83 1.90 2.00 2.10 2.24 2.23 2.26 2.24 2.16 2.03 1.90 1.82
0.70 0.86 0.99 0.75 0.66 0.86 1.03 0.81 0.86 1.03 1.24 1.25 1.18 1.09 0.98 0.85 0.73 0.67 0.64 0.70 0.85 0.95 1.07 1.19 1.32 1.48 1.59 1.61 1.64 1.73 1.85 1.90 1.88 1.94 1.98 2.02 2.08 2.07 2.06 2.05 1.97 1.90 1.87 1.82
1.02 1.16 1.06 0.90 0.92 0.87 0.94 1.07 1.13 1.22 1.41 1.42 1.27 1.13 1.07 0.95 0.81 0.73 0.72 0.76 0.85 0.95 1.08 1.18 1.32 1.46 1.60 1.71 1.77 1.82 1.89 1.97 2.04 2.07 2.07 2.12 2.21 2.24 2.13 2.03 1.96 1.88 1.82 1.67
1.23 1.37 1.20 1.04 1.01 0.98 1.04 1.22 1.27 1.24 1.24 1.23 1.16 1.09 1.18 1.18 1.01 0.97 0.96 0.95 0.95 1.00 1.04 1.14 1.25 1.41 1.57 1.70 1.71 1.83 1.90 1.92 2.01 2.11 2.18 2.20 2.21 2.15 2.04 1.90 1.82 1.75 1.66 1.59
1.46 1.67 1.60 1.41 1.28 1.18 1.18 1.15 1.22 1.16 1.18 1.15 1.11 1.07 1.12 1.22 1.26 1.18 1.05 1.00 1.01 1.05 1.08 1.13 1.23 1.33 1.55 1.72 1.72 1.77 1.89 1.94 1.92 1.93 1.99 2.04 2.05 1.99 1.86 1.76 1.67 1.61 1.51 1.48
1.80 1.81 1.92 1.80 1.49 1.32 1.36 1.31 1.25 1.20 1.26 1.30 1.23 1.15 1.15 1.25 1.28 1.23 1.12 1.04 1.03 1.05 1.09 1.14 1.24 1.35 1.45 1.69 1.88 1.93 1.90 1.81 1.73 1.64 1.62 1.63 1.61 1.63 1.68 1.55 1.54 1.43 1.34 1.28
1.54 1.78 1.84 1.69 1.52 1.56 1.54 1.51 1.47 1.44 1.39 1.39 1.45 1.39 1.26 1.22 1.21 1.17 1.13 1.12 1.09 1.09 1.12 1.19 1.30 1.36 1.37 1.45 1.65 1.84 1.80 1.67 1.59 1.55 1.54 1.46 1.40 1.39 1.45 1.44 1.35 1.25 1.26 1.19
1.37 1.58 1.80 1.69 1.63 1.62 1.57 1.61 1.59 1.61 1.61 1.53 1.53 1.51 1.39 1.29 1.23 1.20 1.18 1.08 0.98 0.98 1.05 1.11 1.17 1.26 1.32 1.36 1.45 1.55 1.62 1.65 1.51 1.43 1.48 1.45 1.39 1.35 1.36 1.37 1.34 1.23 1.18 1.16
1.36 1.38 1.49 1.48 1.48 1.54 1.48 1.48 1.56 1.67 1.73 1.70 1.63 1.54 1.42 1.37 1.30 1.21 1.10 1.01 0.99 1.01 0.98 1.02 1.08 1.11 1.14 1.24 1.35 1.40 1.43 1.48 1.45 1.42 1.40 1.39 1.37 1.32 1.28 1.26 1.28 1.21 1.12 1.14
1.36 1.24 1.26 1.45 1.51 1.52 1.56 1.56 1.55 1.52 1.47 1.47 1.48 1.47 1.42 1.35 1.25 1.16 1.08 1.06 1.10 1.13 1.07 1.02 1.02 1.04 1.03 1.08 1.23 1.28 1.26 1.40 1.36 1.35 1.37 1.36 1.38 1.39 1.32 1.31 1.31 1.25 1.16 1.15
1.33 1.27 1.31 1.41 1.43 1.49 1.55 1.46 1.39 1.33 1.32 1.29 1.28 1.26 1.24 1.28 1.25 1.19 1.17 1.13 1.11 1.16 1.16 1.14 1.11 1.06 1.05 1.09 1.17 1.20 1.12 1.15 1.21 1.15 1.17 1.23 1.24 1.30 1.30 1.29 1.28 1.22 1.13 1.12
1.23 1.15 1.25 1.35 1.35 1.41 1.31 1.23 1.18 1.08 1.09 1.16 1.22 1.23 1.17 1.16 1.13 1.15 1.17 1.11 1.05 1.08 1.11 1.13 1.08 1.03 1.01 1.04 1.08 1.15 1.09 1.01 1.02 1.07 1.20 1.22 1.25 1.28 1.30 1.27 1.25 1.24 1.23 1.22
1.16 1.12 1.13 1.13 1.14 1.19 1.08 1.07 1.06 1.04 0.98 1.03 1.15 1.19 1.17 1.15 1.10 1.02 1.03 1.09 1.13 1.13 1.06 0.95 0.95 0.89 0.93 1.02 1.08 1.12 1.15 1.11 1.09 1.11 1.23 1.31 1.33 1.37 1.37 1.36 1.34 1.32 1.28 1.25
1.22 1.24 1.19 1.08 1.04 1.11 1.09 1.04 0.97 0.96 0.94 0.97 1.09 1.15 1.16 1.11 1.07 1.06 1.11 1.16 1.17 1.04 0.86 0.80 0.76 0.78 0.79 0.86 0.96 0.98 1.08 1.13 1.13 1.16 1.20 1.23 1.26 1.29 1.29 1.26 1.26 1.27 1.31 1.36
1.35 1.25 1.17 1.10 0.99 0.98 1.07 1.07 1.04 1.02 0.96 0.97 1.07 1.10 1.11 1.05 0.97 0.98 1.09 1.14 1.06 0.87 0.74 0.81 0.79 0.76 0.70 0.74 0.81 0.85 0.96 1.07 1.17 1.19 1.16 1.18 1.16 1.12 1.11 1.17 1.25 1.33 1.36 1.39
1.35 1.17 1.03 0.95 0.98 1.06 1.04 1.03 1.03 1.05 1.11 1.19 1.17 1.10 1.09 1.08 1.00 0.99 0.99 1.03 0.95 0.89 0.73 0.69 0.75 0.81 0.77 0.69 0.68 0.84 0.96 1.03 1.09 1.13 1.11 1.15 1.21 1.18 1.12 1.17 1.28 1.32 1.36 1.36
1.22 1.09 1.04 1.01 1.00 1.06 1.05 1.03 1.04 1.03 1.08 1.21 1.28 1.26 1.22 1.15 1.10 1.08 1.10 0.98 0.86 0.84 0.77 0.76 0.80 0.79 0.76 0.70 0.71 0.77 0.81 0.85 0.88 0.92 0.95 1.03 1.16 1.21 1.20 1.15 1.12 1.14 1.23 1.29
1.23 1.15 1.10 1.03 1.00 1.07 1.17 1.18 1.11 1.05 1.02 1.08 1.15 1.19 1.22 1.20 1.18 1.10 1.15 1.20 1.06 0.89 0.81 0.87 0.80 0.71 0.72 0.73 0.76 0.77 0.77 0.77 0.79 0.87 0.95 1.03 1.15 1.24 1.22 1.14 1.04 0.99 1.07 1.22
1.29 1.22 1.18 1.17 1.17 1.15 1.16 1.16 1.11 1.06 1.01 1.04 1.01 1.04 1.10 1.16 1.25 1.27 1.23 1.15 1.12 1.02 0.88 0.82 0.78 0.71 0.65 0.69 0.74 0.77 0.77 0.75 0.76 0.81 0.87 0.95 0.99 1.05 1.11 1.11 1.04 0.95 0.94 1.03
1.34 1.25 1.19 1.22 1.24 1.17 1.12 1.15 1.24 1.25 1.20 1.18 1.09 1.00 1.01 1.08 1.17 1.24 1.23 1.12 0.99 0.89 0.81 0.79 0.73 0.68 0.62 0.66 0.71 0.76 0.79 0.81 0.80 0.75 0.73 0.76 0.75 0.73 0.75 0.80 0.85 0.88 0.89 0.86
1.33 1.23 1.16 1.11 1.06 1.00 1.06 1.12 1.17 1.25 1.26 1.19 1.10 0.99 0.99 1.07 1.13 1.12 1.05 1.00 0.91 0.83 0.72 0.62 0.57 0.58 0.57 0.56 0.57 0.59 0.62 0.64 0.68 0.75 0.86 0.92 0.75 0.61 0.59 0.64 0.68 0.72 0.77 0.76

GEFSNGP_prec_meanprecacc_240.txt.gz
Total_Precipitation_Accumulation
0.03 0.07 0.11 0.11 0.08 0.08 0.07 0.06 0.07 0.09 0.14 0.25 0.35 0.41 0.44 0.47 0.50 0.49 0.43 0.44 0.55 0.70 0.84 0.82 0.74 0.67 0.69 0.85 0.98 1.18 1.40 1.44 1.47 1.58 1.70 1.85 2.02 2.06 2.07 2.07 2.01 2.11 2.07 1.98
0.05 0.07 0.09 0.07 0.07 0.07 0.06 0.06 0.06 0.10 0.16 0.26 0.37 0.41 0.38 0.38 0.39 0.44 0.49 0.50 0.57 0.76 0.96 1.05 1.05 1.00 1.01 1.12 1.34 1.61 1.88 1.97 2.06 2.15 2.23 2.29 2.34 2.34 2.39 2.37 2.30 2.20 2.10 2.10
0.11 0.10 0.11 0.09 0.09 0.08 0.08 0.09 0.11 0.15 0.23 0.34 0.46 0.44 0.49 0.49 0.48 0.58 0.62 0.66 0.70 0.86 1.02 1.16 1.19 1.22 1.32 1.40 1.59 1.82 2.00 2.10 2.21 2.29 2.40 2.49 2.51 2.50 2.41 2.37 2.31 2.20 2.19 2.22
0.19 0.21 0.22 0.13 0.15 0.17 0.20 0.22 0.25 0.27 0.32 0.39 0.48 0.50 0.54 0.57 0.57 0.60 0.71 0.84 0.84 0.94 1.05 1.11 1.23 1.35 1.47 1.51 1.56 1.81 2.00 2.12 2.16 2.23 2.31 2.45 2.58 2.49 2.34 2.28 2.23 2.20 2.19 2.09
0.32 0.28 0.29 0.28 0.26 0.27 0.35 0.43 0.39 0.52 0.59 0.55 0.56 0.60 0.62 0.64 0.79 0.79 0.79 0.86 0.89 1.01 1.10 1.14 1.19 1.24 1.23 1.30 1.42 1.56 1.67 1.80 1.87 2.01 2.18 2.32 2.38 2.37 2.35 2.28 2.11 2.01 1.92 1.88
0.46 0.47 0.44 0.43 0.45 0.36 0.40 0.72 0.70 0.78 0.85 0.80 0.80 0.94 0.89 0.69 0.69 0.74 0.81 0.87 0.96 1.09 1.16 1.14 1.16 1.18 1.23 1.33 1.49 1.68 1.81 1.89 1.97 2.06 2.19 2.23 2.31 2.39 2.37 2.29 2.24 2.19 2.06 1.99
0.50 0.55 0.55 0.49 0.45 0.46 0.76 1.02 1.01 1.08 1.10 1.01 1.04 1.05 0.96 0.81 0.76 0.73 0.78 0.83 0.91 1.06 1.19 1.20 1.22 1.36 1.47 1.58 1.71 1.83 1.89 1.91 1.93 1.99 2.09 2.17 2.32 2.30 2.33 2.31 2.24 2.11 1.97 1.88
0.72 0.89 1.01 0.76 0.68 0.88 1.04 0.82 0.86 1.03 1.24 1.25 1.18 1.10 1.00 0.91 0.83 0.75 0.69 0.74 0.88 0.99 1.13 1.26 1.38 1.53 1.66 1.69 1.73 1.81 1.95 2.00 1.98 2.05 2.08 2.11 2.17 2.15 2.15 2.13 2.04 1.96 1.93 1.90
1.04 1.19 1.09 0.93 0.94 0.89 0.95 1.08 1.13 1.22 1.41 1.42 1.28 1.14 1.13 1.05 0.92 0.81 0.78 0.81 0.88 0.98 1.12 1.23 1.37 1.51 1.66 1.78 1.84 1.89 1.95 2.04 2.11 2.15 2.17 2.21 2.30 2.31 2.19 2.09 2.02 1.93 1.86 1.72
1.25 1.39 1.22 1.06 1.03 0.99 1.04 1.22 1.27 1.24 1.24 1.23 1.16 1.10 1.22 1.23 1.08 1.03 1.02 1.00 0.99 1.03 1.09 1.20 1.31 1.47 1.64 1.77 1.78 1.87 1.94 1.97 2.06 2.18 2.26 2.31 2.31 2.24 2.10 1.95 1.87 1.79 1.70 1.62
1.48 1.69 1.62 1.43 1.29 1.20 1.20 1.16 1.23 1.16 1.18 1.16 1.13 1.09 1.15 1.26 1.31 1.23 1.10 1.04 1.06 1.09 1.12 1.18 1.28 1.38 1.60 1.78 1.79 1.81 1.93 1.98 1.96 1.97 2.03 2.09 2.11 2.05 1.91 1.80 1.72 1.65 1.55 1.52
1.83 1.85 1.95 1.83 1.51 1.33 1.37 1.32 1.27 1.21 1.27 1.31 1.26 1.18 1.18 1.29 1.32 1.27 1.16 1.07 1.06 1.08 1.11 1.18 1.28 1.40 1.50 1.74 1.95 1.99 1.96 1.86 1.77 1.67 1.65 1.67 1.65 1.69 1.75 1.62 1.60 1.47 1.38 1.30
1.57 1.82 1.88 1.71 1.53 1.57 1.55 1.52 1.48 1.45 1.42 1.42 1.47 1.41 1.29 1.25 1.26 1.22 1.19 1.16 1.12 1.12 1.14 1.22 1.34 1.40 1.41 1.49 1.72 1.92 1.86 1.72 1.62 1.58 1.57 1.49 1.44 1.43 1.50 1.49 1.39 1.29 1.29 1.22
1.39 1.61 1.83 1.70 1.64 1.64 1.59 1.63 1.64 1.67 1.65 1.55 1.55 1.53 1.41 1.31 1.25 1.22 1.22 1.11 1.02 1.02 1.08 1.14 1.21 1.30 1.35 1.39 1.52 1.63 1.69 1.71 1.55 1.46 1.51 1.50 1.43 1.39 1.40 1.43 1.39 1.28 1.23 1.21
1.37 1.39 1.50 1.49 1.49 1.54 1.49 1.50 1.62 1.71 1.75 1.72 1.64 1.56 1.44 1.40 1.32 1.23 1.12 1.02 1.01 1.05 1.02 1.07 1.13 1.15 1.17 1.28 1.43 1.50 1.52 1.54 1.49 1.45 1.43 1.44 1.43 1.37 1.31 1.30 1.31 1.24 1.16 1.19
1.36 1.25 1.26 1.45 1.52 1.53 1.59 1.61 1.60 1.55 1.49 1.49 1.49 1.49 1.44 1.37 1.28 1.19 1.10 1.08 1.12 1.16 1.10 1.06 1.07 1.08 1.07 1.12 1.31 1.40 1.36 1.48 1.41 1.42 1.43 1.40 1.43 1.44 1.37 1.35 1.34 1.28 1.19 1.19
1.36 1.29 1.32 1.43 1.45 1.51 1.59 1.51 1.43 1.35 1.33 1.31 1.30 1.28 1.26 1.31 1.28 1.24 1.21 1.16 1.14 1.19 1.19 1.18 1.14 1.08 1.08 1.12 1.22 1.32 1.22 1.22 1.26 1.21 1.26 1.33 1.33 1.36 1.36 1.36 1.33 1.26 1.17 1.16
1.26 1.17 1.27 1.38 1.38 1.43 1.34 1.26 1.20 1.10 1.10 1.17 1.24 1.25 1.21 1.21 1.18 1.21 1.21 1.15 1.08 1.11 1.14 1.15 1.10 1.05 1.02 1.07 1.12 1.21 1.17 1.07 1.07 1.11 1.24 1.29 1.33 1.36 1.39 1.36 1.33 1.31 1.28 1.26
1.20 1.16 1.17 1.16 1.17 1.23 1.12 1.10 1.09 1.08 1.03 1.08 1.19 1.24 1.24 1.22 1.15 1.08 1.09 1.15 1.18 1.19 1.09 0.97 0.97 0.92 0.95 1.04 1.11 1.16 1.19 1.16 1.14 1.16 1.27 1.35 1.37 1.42 1.44 1.45 1.43 1.41 1.35 1.31
1.26 1.28 1.23 1.12 1.08 1.15 1.14 1.08 1.02 1.01 0.99 1.03 1.15 1.23 1.25 1.18 1.13 1.11 1.18 1.22 1.22 1.08 0.89 0.83 0.78 0.81 0.81 0.89 0.99 1.01 1.11 1.17 1.17 1.20 1.25 1.27 1.30 1.33 1.33 1.31 1.31 1.33 1.37 1.42
1.42 1.31 1.23 1.17 1.04 1.03 1.12 1.12 1.11 1.08 1.01 1.03 1.15 1.18 1.19 1.11 1.02 1.04 1.16 1.19 1.10 0.90 0.76 0.83 0.82 0.80 0.72 0.77 0.84 0.88 1.01 1.13 1.21 1.23 1.20 1.21 1.20 1.15 1.15 1.20 1.28 1.36 1.39 1.42
1.42 1.23 1.09 1.01 1.04 1.12 1.09 1.08 1.08 1.11 1.17 1.25 1.23 1.17 1.17 1.15 1.06 1.05 1.04 1.08 0.98 0.91 0.74 0.71 0.78 0.83 0.79 0.70 0.70 0.88 1.01 1.08 1.14 1.16 1.15 1.18 1.24 1.21 1.15 1.20 1.30 1.34 1.38 1.38
1.29 1.17 1.13 1.09 1.10 1.16 1.13 1.09 1.10 1.11 1.17 1.29 1.37 1.35 1.30 1.23 1.17 1.15 1.16 1.03 0.91 0.87 0.80 0.79 0.82 0.80 0.77 0.72 0.74 0.81 0.85 0.89 0.92 0.97 0.99 1.07 1.19 1.25 1.24 1.19 1.14 1.16 1.26 1.32
1.31 1.24 1.20 1.13 1.10 1.17 1.28 1.27 1.21 1.16 1.11 1.16 1.21 1.26 1.28 1.27 1.25 1.16 1.20 1.24 1.09 0.91 0.84 0.89 0.82 0.72 0.74 0.75 0.79 0.80 0.81 0.80 0.83 0.91 0.98 1.06 1.19 1.28 1.27 1.18 1.07 1.01 1.10 1.25
1.35 1.29 1.28 1.28 1.27 1.24 1.24 1.25 1.21 1.15 1.09 1.11 1.07 1.09 1.16 1.23 1.33 1.34 1.29 1.20 1.15 1.04 0.91 0.84 0.80 0.73 0.68 0.73 0.78 0.81 0.81 0.79 0.79 0.83 0.90 0.99 1.03 1.09 1.15 1.14 1.06 0.97 0.96 1.05
1.42 1.33 1.28 1.32 1.33 1.25 1.19 1.22 1.32 1.34 1.28 1.25 1.17 1.07 1.07 1.15 1.24 1.30 1.30 1.20 1.03 0.92 0.85 0.82 0.76 0.71 0.65 0.69 0.74 0.79 0.82 0.84 0.82 0.77 0.76 0.79 0.79 0.77 0.77 0.82 0.88 0.91 0.92 0.88
1.40 1.30 1.23 1.18 1.13 1.06 1.11 1.18 1.25 1.34 1.36 1.28 1.18 1.06 1.04 1.13 1.19 1.18 1.10 1.08 0.98 0.87 0.76 0.65 0.61 0.61 0.60 0.60 0.61 0.62 0.65 0.67 0.70 0.78 0.89 0.95 0.78 0.64 0.61 0.66 0.70 0.76 0.80 0.79

GEFSNGP_prec_meanprecacc_246.txt.gz
Total_Precipitation_Accumulation
0.03 0.07 0.11 0.12 0.09 0.08 0.07 0.07 0.07 0.10 0.16 0.25 0.36 0.42 0.48 0.51 0.53 0.53 0.49 0.48 0.58 0.72 0.86 0.84 0.78 0.71 0.75 0.91 1.06 1.26 1.46 1.48 1.51 1.61 1.73 1.88 2.05 2.10 2.10 2.09 2.04 2.14 2.10 2.01
0.05 0.07 0.09 0.07 0.07 0.07 0.06 0.06 0.07 0.11 0.18 0.28 0.38 0.42 0.41 0.45 0.44 0.48 0.56 0.58 0.63 0.80 0.97 1.07 1.09 1.08 1.12 1.25 1.47 1.72 1.96 2.03 2.11 2.19 2.27 2.34 2.40 2.40 2.44 2.41 2.33 2.23 2.12 2.12
0.11 0.10 0.11 0.09 0.09 0.08 0.08 0.10 0.11 0.16 0.24 0.37 0.49 0.46 0.52 0.56 0.53 0.61 0.68 0.75 0.78 0.92 1.04 1.18 1.22 1.28 1.43 1.59 1.78 1.97 2.09 2.16 2.26 2.34 2.45 2.54 2.57 2.57 2.47 2.42 2.36 2.24 2.22 2.24
0.19 0.21 0.22 0.14 0.16 0.18 0.20 0.22 0.26 0.28 0.33 0.41 0.51 0.53 0.56 0.59 0.59 0.62 0.74 0.88 0.89 0.99 1.09 1.17 1.30 1.45 1.60 1.68 1.81 2.09 2.23 2.27 2.27 2.30 2.39 2.53 2.65 2.56 2.39 2.33 2.29 2.25 2.22 2.11
0.32 0.28 0.29 0.28 0.26 0.28 0.36 0.43 0.40 0.54 0.61 0.56 0.58 0.62 0.65 0.65 0.80 0.81 0.81 0.90 0.95 1.07 1.16 1.27 1.32 1.36 1.36 1.44 1.59 1.79 1.98 2.09 2.07 2.15 2.31 2.43 2.47 2.45 2.42 2.34 2.17 2.05 1.96 1.91
0.46 0.47 0.45 0.43 0.46 0.37 0.41 0.72 0.71 0.78 0.86 0.81 0.84 1.00 0.92 0.71 0.71 0.78 0.84 0.91 1.01 1.14 1.21 1.21 1.23 1.24 1.29 1.39 1.58 1.77 1.95 2.10 2.22 2.29 2.39 2.40 2.45 2.55 2.53 2.44 2.37 2.29 2.13 2.03
0.50 0.55 0.55 0.49 0.46 0.47 0.77 1.03 1.01 1.08 1.11 1.02 1.05 1.08 0.99 0.84 0.79 0.77 0.84 0.91 1.00 1.14 1.26 1.25 1.26 1.40 1.51 1.62 1.77 1.91 1.97 2.04 2.14 2.25 2.37 2.51 2.66 2.62 2.59 2.52 2.42 2.25 2.07 1.96
0.72 0.90 1.02 0.77 0.69 0.89 1.05 0.82 0.87 1.04 1.24 1.26 1.20 1.12 1.02 0.94 0.86 0.78 0.73 0.81 0.97 1.08 1.21 1.34 1.45 1.59 1.71 1.74 1.79 1.90 2.05 2.12 2.15 2.26 2.28 2.34 2.41 2.38 2.35 2.36 2.31 2.25 2.22 2.16
1.05 1.21 1.10 0.94 0.96 0.90 0.96 1.09 1.14 1.23 1.42 1.43 1.29 1.16 1.15 1.08 0.96 0.85 0.83 0.88 0.96 1.05 1.17 1.28 1.44 1.60 1.74 1.83 1.90 1.97 2.04 2.13 2.24 2.27 2.29 2.35 2.44 2.46 2.38 2.30 2.24 2.14 2.05 1.89
1.26 1.40 1.23 1.07 1.04 1.00 1.05 1.23 1.29 1.25 1.26 1.25 1.18 1.12 1.24 1.26 1.11 1.07 1.07 1.06 1.06 1.11 1.18 1.27 1.37 1.52 1.69 1.81 1.85 1.96 2.02 2.05 2.16 2.27 2.37 2.44 2.44 2.37 2.23 2.07 1.99 1.92 1.81 1.72
1.49 1.71 1.64 1.45 1.31 1.21 1.21 1.18 1.25 1.18 1.20 1.17 1.15 1.11 1.18 1.30 1.35 1.28 1.17 1.10 1.12 1.18 1.24 1.27 1.34 1.42 1.64 1.83 1.89 1.91 2.02 2.06 2.03 2.04 2.09 2.16 2.20 2.18 2.05 1.92 1.81 1.74 1.65 1.62
1.84 1.87 1.97 1.85 1.53 1.34 1.39 1.34 1.28 1.24 1.31 1.34 1.28 1.19 1.20 1.32 1.37 1.34 1.23 1.16 1.17 1.18 1.21 1.26 1.35 1.48 1.57 1.80 2.01 2.05 2.03 1.92 1.82 1.71 1.68 1.69 1.69 1.75 1.85 1.75 1.71 1.56 1.46 1.40
1.57 1.83 1.89 1.72 1.54 1.58 1.56 1.53 1.49 1.48 1.46 1.45 1.50 1.43 1.31 1.29 1.31 1.28 1.24 1.22 1.24 1.29 1.33 1.38 1.46 1.49 1.48 1.55 1.76 1.96 1.90 1.76 1.65 1.61 1.59 1.51 1.46 1.46 1.54 1.56 1.50 1.39 1.38 1.29
1.40 1.61 1.83 1.70 1.65 1.65 1.60 1.64 1.65 1.69 1.67 1.57 1.57 1.56 1.45 1.36 1.30 1.27 1.27 1.17 1.09 1.12 1.21 1.27 1.31 1.38 1.41 1.43 1.55 1.66 1.72 1.74 1.57 1.48 1.54 1.52 1.46 1.42 1.43 1.46 1.45 1.37 1.35 1.30
1.37 1.40 1.51 1.49 1.49 1.55 1.50 1.52 1.64 1.73 1.78 1.75 1.70 1.61 1.48 1.44 1.38 1.28 1.16 1.07 1.07 1.10 1.09 1.14 1.20 1.21 1.23 1.32 1.46 1.53 1.56 1.58 1.53 1.48 1.45 1.46 1.45 1.39 1.34 1.32 1.35 1.29 1.23 1.27
1.37 1.25 1.26 1.46 1.52 1.54 1.59 1.63 1.63 1.59 1.55 1.56 1.55 1.53 1.50 1.43 1.33 1.24 1.15 1.12 1.17 1.20 1.15 1.12 1.14 1.14 1.12 1.17 1.35 1.45 1.41 1.54 1.47 1.46 1.47 1.44 1.46 1.46 1.39 1.38 1.37 1.31 1.22 1.23
1.37 1.30 1.33 1.43 1.46 1.53 1.63 1.56 1.48 1.42 1.40 1.38 1.37 1.34 1.31 1.36 1.34 1.30 1.27 1.22 1.19 1.23 1.23 1.22 1.18 1.14 1.14 1.19 1.30 1.41 1.31 1.29 1.33 1.26 1.30 1.37 1.37 1.40 1.40 1.40 1.36 1.29 1.20 1.19
1.28 1.20 1.30 1.40 1.40 1.47 1.41 1.34 1.27 1.17 1.17 1.24 1.32 1.33 1.29 1.29 1.27 1.31 1.32 1.23 1.14 1.17 1.19 1.20 1.14 1.10 1.10 1.16 1.23 1.35 1.30 1.18 1.15 1.17 1.31 1.35 1.39 1.43 1.45 1.42 1.38 1.36 1.34 1.32
1.23 1.19 1.19 1.19 1.21 1.29 1.20 1.17 1.15 1.14 1.10 1.16 1.27 1.32 1.32 1.30 1.25 1.18 1.20 1.29 1.31 1.27 1.15 1.01 1.01 0.98 1.03 1.15 1.22 1.27 1.32 1.29 1.26 1.24 1.34 1.43 1.44 1.49 1.50 1.48 1.46 1.44 1.41 1.37
1.30 1.32 1.26 1.17 1.15 1.24 1.22 1.15 1.08 1.08 1.06 1.10 1.22 1.31 1.34 1.27 1.21 1.19 1.26 1.32 1.33 1.17 0.95 0.87 0.82 0.85 0.86 0.93 1.04 1.08 1.20 1.28 1.29 1.28 1.32 1.33 1.35 1.36 1.36 1.33 1.33 1.34 1.39 1.46
1.51 1.39 1.30 1.25 1.12 1.09 1.17 1.17 1.15 1.12 1.05 1.07 1.19 1.23 1.26 1.18 1.08 1.09 1.21 1.26 1.17 0.97 0.82 0.88 0.86 0.83 0.76 0.80 0.88 0.92 1.08 1.23 1.32 1.29 1.24 1.25 1.23 1.17 1.16 1.22 1.30 1.37 1.40 1.45
1.51 1.34 1.19 1.09 1.10 1.17 1.13 1.12 1.13 1.16 1.21 1.29 1.27 1.22 1.21 1.20 1.11 1.11 1.09 1.12 1.03 0.97 0.80 0.76 0.82 0.87 0.83 0.76 0.74 0.92 1.07 1.16 1.22 1.22 1.19 1.21 1.26 1.22 1.16 1.21 1.32 1.36 1.40 1.39
1.37 1.24 1.19 1.15 1.15 1.21 1.19 1.17 1.17 1.18 1.22 1.35 1.42 1.40 1.34 1.26 1.21 1.20 1.21 1.07 0.94 0.92 0.85 0.83 0.86 0.83 0.80 0.75 0.77 0.85 0.90 0.96 0.99 1.03 1.03 1.09 1.21 1.27 1.25 1.21 1.16 1.18 1.27 1.33
1.38 1.29 1.26 1.18 1.16 1.23 1.35 1.35 1.27 1.22 1.16 1.22 1.28 1.31 1.32 1.31 1.30 1.21 1.26 1.29 1.13 0.95 0.87 0.93 0.85 0.75 0.76 0.77 0.81 0.84 0.85 0.86 0.88 0.96 1.03 1.09 1.21 1.30 1.29 1.20 1.08 1.02 1.11 1.26
1.39 1.33 1.32 1.33 1.30 1.28 1.29 1.30 1.26 1.20 1.13 1.16 1.12 1.14 1.21 1.28 1.39 1.40 1.35 1.25 1.19 1.08 0.94 0.88 0.84 0.76 0.71 0.76 0.81 0.84 0.85 0.82 0.83 0.88 0.95 1.03 1.07 1.12 1.18 1.16 1.08 0.99 0.98 1.07
1.48 1.38 1.31 1.35 1.37 1.29 1.22 1.26 1.36 1.37 1.33 1.33 1.23 1.12 1.12 1.20 1.31 1.37 1.36 1.25 1.07 0.97 0.90 0.86 0.79 0.75 0.69 0.72 0.77 0.82 0.85 0.87 0.85 0.80 0.79 0.83 0.82 0.79 0.80 0.85 0.90 0.93 0.94 0.90
1.43 1.33 1.26 1.21 1.16 1.09 1.13 1.20 1.27 1.37 1.41 1.35 1.25 1.10 1.08 1.17 1.25 1.24 1.17 1.14 1.03 0.91 0.80 0.69 0.63 0.63 0.62 0.63 0.64 0.65 0.68 0.70 0.73 0.81 0.92 0.98 0.81 0.67 0.64 0.68 0.73 0.78 0.82 0.81

GEFSNGP_prec_meanprecacc_252.txt.gz
Total_Precipitation_Accumulation
0.03 0.07 0.11 0.12 0.09 0.08 0.07 0.07 0.07 0.11 0.16 0.26 0.36 0.42 0.49 0.52 0.54 0.54 0.50 0.50 0.61 0.75 0.88 0.86 0.79 0.73 0.76 0.93 1.09 1.29 1.49 1.53 1.56 1.68 1.81 1.95 2.12 2.16 2.14 2.13 2.07 2.17 2.13 2.04
0.05 0.07 0.09 0.08 0.07 0.07 0.06 0.06 0.07 0.11 0.19 0.28 0.38 0.43 0.43 0.47 0.46 0.50 0.58 0.60 0.65 0.83 1.01 1.11 1.13 1.11 1.15 1.28 1.49 1.74 1.99 2.09 2.19 2.27 2.34 2.40 2.46 2.47 2.50 2.46 2.38 2.27 2.17 2.18
0.11 0.10 0.12 0.09 0.09 0.09 0.09 0.10 0.11 0.17 0.25 0.37 0.50 0.47 0.54 0.58 0.54 0.63 0.69 0.76 0.80 0.95 1.07 1.22 1.27 1.34 1.48 1.63 1.83 2.03 2.17 2.26 2.38 2.45 2.55 2.64 2.68 2.68 2.55 2.48 2.42 2.30 2.28 2.29
0.19 0.21 0.22 0.14 0.16 0.19 0.21 0.23 0.26 0.29 0.34 0.42 0.51 0.53 0.58 0.61 0.61 0.63 0.75 0.90 0.91 1.01 1.12 1.19 1.33 1.49 1.64 1.72 1.86 2.15 2.32 2.37 2.39 2.42 2.48 2.62 2.76 2.66 2.48 2.42 2.37 2.33 2.29 2.17
0.32 0.28 0.29 0.29 0.27 0.28 0.37 0.44 0.41 0.55 0.62 0.57 0.59 0.64 0.67 0.67 0.82 0.83 0.83 0.91 0.97 1.08 1.18 1.29 1.34 1.40 1.42 1.49 1.64 1.85 2.06 2.17 2.15 2.27 2.45 2.53 2.55 2.54 2.53 2.45 2.28 2.16 2.05 2.00
0.46 0.48 0.45 0.43 0.46 0.37 0.42 0.73 0.72 0.80 0.87 0.82 0.85 1.02 0.94 0.72 0.72 0.79 0.85 0.92 1.02 1.16 1.22 1.23 1.25 1.27 1.32 1.44 1.64 1.84 2.03 2.20 2.31 2.39 2.52 2.54 2.57 2.66 2.64 2.55 2.48 2.42 2.27 2.16
0.51 0.56 0.56 0.50 0.46 0.47 0.78 1.04 1.02 1.09 1.11 1.03 1.06 1.09 1.01 0.86 0.81 0.79 0.85 0.92 1.01 1.16 1.29 1.29 1.31 1.44 1.54 1.66 1.81 1.96 2.03 2.11 2.21 2.32 2.46 2.63 2.78 2.73 2.69 2.63 2.53 2.35 2.16 2.04
0.72 0.91 1.03 0.77 0.69 0.90 1.06 0.83 0.88 1.05 1.25 1.27 1.22 1.14 1.04 0.96 0.87 0.79 0.74 0.82 0.99 1.11 1.25 1.39 1.51 1.65 1.77 1.79 1.83 1.95 2.11 2.17 2.20 2.31 2.33 2.40 2.48 2.45 2.44 2.45 2.42 2.35 2.30 2.23
1.05 1.21 1.10 0.94 0.96 0.91 0.97 1.09 1.15 1.24 1.43 1.45 1.31 1.18 1.17 1.10 0.97 0.86 0.84 0.90 0.99 1.09 1.22 1.33 1.51 1.67 1.81 1.89 1.95 2.02 2.09 2.19 2.29 2.32 2.33 2.40 2.51 2.52 2.46 2.38 2.33 2.23 2.13 1.97
1.26 1.40 1.24 1.08 1.05 1.00 1.06 1.24 1.29 1.26 1.26 1.26 1.19 1.13 1.26 1.28 1.14 1.10 1.10 1.09 1.11 1.17 1.23 1.31 1.41 1.57 1.74 1.85 1.88 2.00 2.06 2.10 2.21 2.31 2.40 2.49 2.49 2.40 2.27 2.12 2.05 1.97 1.86 1.77
1.50 1.71 1.64 1.45 1.31 1.21 1.22 1.18 1.25 1.19 1.20 1.18 1.16 1.12 1.20 1.32 1.38 1.31 1.20 1.14 1.16 1.22 1.28 1.32 1.38 1.46 1.67 1.86 1.92 1.94 2.05 2.09 2.06 2.07 2.13 2.20 2.24 2.21 2.08 1.95 1.85 1.79 1.69 1.67
1.84 1.87 1.97 1.85 1.53 1.34 1.39 1.34 1.29 1.25 1.32 1.36 1.30 1.22 1.23 1.35 1.40 1.37 1.27 1.21 1.22 1.23 1.26 1.32 1.42 1.53 1.61 1.84 2.06 2.10 2.07 1.94 1.84 1.74 1.71 1.72 1.72 1.77 1.88 1.77 1.74 1.60 1.50 1.44
1.57 1.83 1.89 1.72 1.54 1.58 1.56 1.53 1.49 1.48 1.47 1.46 1.51 1.45 1.33 1.31 1.34 1.32 1.29 1.28 1.28 1.34 1.38 1.45 1.55 1.60 1.57 1.62 1.83 2.01 1.95 1.79 1.68 1.64 1.62 1.54 1.48 1.48 1.56 1.58 1.52 1.44 1.43 1.34
1.40 1.61 1.83 1.71 1.66 1.65 1.60 1.64 1.65 1.69 1.67 1.58 1.58 1.57 1.46 1.38 1.33 1.32 1.32 1.22 1.15 1.18 1.27 1.34 1.41 1.51 1.56 1.56 1.64 1.73 1.78 1.79 1.62 1.53 1.58 1.56 1.50 1.45 1.46 1.48 1.46 1.39 1.40 1.36
1.37 1.40 1.51 1.49 1.49 1.55 1.50 1.52 1.64 1.74 1.78 1.76 1.71 1.63 1.50 1.47 1.42 1.33 1.22 1.13 1.12 1.16 1.15 1.19 1.25 1.28 1.33 1.45 1.57 1.62 1.63 1.65 1.61 1.56 1.53 1.53 1.51 1.43 1.36 1.34 1.37 1.31 1.25 1.32
1.37 1.25 1.27 1.46 1.53 1.54 1.60 1.63 1.63 1.60 1.56 1.58 1.57 1.56 1.54 1.48 1.39 1.28 1.19 1.16 1.22 1.25 1.20 1.18 1.19 1.19 1.17 1.23 1.43 1.54 1.51 1.64 1.57 1.55 1.54 1.49 1.50 1.49 1.42 1.40 1.38 1.33 1.25 1.28
1.37 1.30 1.33 1.43 1.46 1.53 1.63 1.56 1.48 1.43 1.42 1.41 1.43 1.41 1.39 1.42 1.38 1.34 1.32 1.27 1.23 1.28 1.28 1.28 1.26 1.20 1.19 1.24 1.35 1.46 1.38 1.39 1.44 1.33 1.36 1.42 1.41 1.43 1.43 1.43 1.39 1.32 1.24 1.24
1.28 1.20 1.30 1.41 1.41 1.48 1.42 1.36 1.30 1.21 1.22 1.31 1.40 1.41 1.35 1.34 1.31 1.36 1.37 1.28 1.19 1.22 1.24 1.25 1.20 1.16 1.16 1.22 1.29 1.41 1.37 1.24 1.22 1.23 1.36 1.41 1.44 1.47 1.49 1.46 1.43 1.42 1.40 1.38
1.24 1.21 1.22 1.22 1.24 1.33 1.24 1.22 1.20 1.20 1.15 1.19 1.29 1.34 1.35 1.34 1.30 1.23 1.25 1.35 1.37 1.34 1.21 1.07 1.07 1.04 1.09 1.20 1.26 1.32 1.37 1.33 1.30 1.29 1.40 1.50 1.51 1.54 1.55 1.53 1.50 1.50 1.47 1.43
1.32 1.35 1.30 1.21 1.20 1.29 1.26 1.19 1.11 1.11 1.08 1.11 1.23 1.32 1.35 1.29 1.24 1.23 1.32 1.39 1.39 1.22 1.00 0.93 0.89 0.92 0.92 0.98 1.08 1.11 1.23 1.31 1.32 1.31 1.36 1.38 1.41 1.43 1.42 1.37 1.36 1.37 1.43 1.50
1.55 1.44 1.35 1.28 1.15 1.12 1.20 1.19 1.17 1.14 1.07 1.09 1.20 1.24 1.27 1.19 1.10 1.13 1.25 1.29 1.20 1.01 0.86 0.93 0.92 0.89 0.81 0.86 0.93 0.96 1.11 1.26 1.34 1.31 1.26 1.29 1.29 1.23 1.21 1.26 1.32 1.40 1.42 1.47
1.54 1.37 1.22 1.12 1.13 1.19 1.16 1.15 1.15 1.18 1.23 1.30 1.28 1.23 1.23 1.21 1.13 1.13 1.11 1.14 1.04 0.99 0.82 0.79 0.86 0.90 0.87 0.80 0.77 0.95 1.09 1.19 1.25 1.24 1.22 1.24 1.30 1.27 1.20 1.25 1.34 1.38 1.42 1.41
1.39 1.26 1.21 1.18 1.18 1.24 1.22 1.19 1.20 1.20 1.23 1.37 1.44 1.42 1.35 1.28 1.22 1.21 1.22 1.08 0.96 0.94 0.87 0.86 0.90 0.87 0.83 0.78 0.79 0.87 0.92 0.99 1.02 1.05 1.05 1.12 1.26 1.33 1.29 1.24 1.18 1.20 1.30 1.35
1.41 1.32 1.27 1.20 1.18 1.26 1.38 1.37 1.30 1.24 1.18 1.24 1.30 1.33 1.34 1.33 1.31 1.23 1.27 1.30 1.15 0.97 0.90 0.96 0.88 0.78 0.79 0.80 0.84 0.87 0.88 0.88 0.91 0.99 1.05 1.12 1.26 1.34 1.31 1.23 1.10 1.04 1.13 1.28
1.42 1.36 1.34 1.34 1.32 1.30 1.30 1.32 1.28 1.22 1.15 1.18 1.14 1.16 1.24 1.32 1.43 1.43 1.38 1.28 1.22 1.11 0.97 0.91 0.87 0.80 0.74 0.78 0.84 0.88 0.87 0.85 0.86 0.91 0.97 1.06 1.10 1.14 1.19 1.18 1.09 1.00 0.99 1.08
1.49 1.39 1.33 1.36 1.38 1.30 1.23 1.27 1.37 1.39 1.36 1.35 1.25 1.15 1.15 1.26 1.38 1.43 1.41 1.28 1.10 1.00 0.93 0.88 0.82 0.78 0.72 0.74 0.79 0.84 0.87 0.90 0.89 0.84 0.82 0.85 0.85 0.81 0.81 0.86 0.92 0.95 0.96 0.92
1.44 1.34 1.27 1.23 1.18 1.10 1.15 1.21 1.29 1.40 1.44 1.39 1.29 1.15 1.12 1.22 1.32 1.32 1.23 1.18 1.07 0.94 0.83 0.72 0.66 0.66 0.66 0.65 0.65 0.66 0.69 0.71 0.75 0.83 0.94 1.00 0.84 0.69 0.66 0.70 0.75 0.80 0.84 0.83